Location: Balmoral
(33.0667°S, 151.5833°E)
Time: 03:37:25
(UTC+00:00)

CZ-4B R/B - Pass Details

Date: 18 September 2020
Orbit: 391 x 461 km, 97.6° (Epoch: 23 October)

Event Time Altitude Azimuth Distance (km) Brightness Sun altitude
Rises 19:01:42 0° 164° (SSE) 2,344 5.3 -10.4°
Reaches altitude 10° 19:03:44 10° 159° (SSE) 1,468 4.3 -10.0°
Maximum altitude 19:06:49 56° 79° (E) 481 1.9 -9.3°
Drops below altitude 10° 19:09:49 10° 360° (N) 1,433 3.9 -8.7°
Sets 19:11:47 0° 355° (N) 2,280 4.9 -8.3°
